Location: Ettlingenweier
(48.9271°N, 8.3883°E)
Time: 23:30:59
(UTC+00:00)

Daily predictions for brighter satellites

Satellite Brightness Start Highest point End
(mag) Time Altitude Azimuth Time Altitude Azimuth Time Altitude Azimuth
Cosmos 1437 Rocket 4.2 17:28:09 10° SE 17:30:30 16° E 17:32:52 10° NE
ASTEX 1 3.5 17:26:25 10° NNE 17:31:20 56° E 17:36:14 10° S
HJ-1C 4.3 17:30:05 10° SE 17:32:41 25° ENE 17:35:18 10° NNE
Cosmos 1741 Rocket 4.1 17:27:53 10° S 17:33:06 62° ESE 17:38:17 10° NNE
CZ-4C R/B 3.9 17:30:24 10° N 17:34:40 70° WNW 17:38:43 10° SSW
Cosmos 1626 3.6 17:32:48 10° NNW 17:36:15 41° W 17:39:41 10° SSW
USA 267 3.4 17:29:49 10° SE 17:36:23 86° SSW 17:43:00 10° NW
Cosmos 1814 Rocket 4.2 17:31:38 10° NNW 17:36:48 54° ENE 17:41:54 10° SE
SL-4 R/B 2.3 17:32:51 10° WNW 17:37:14 79° SSW 17:41:53 10° ESE
Cosmos 2084 Rocket 4.2 17:36:31 10° NNW 17:39:56 31° NE 17:43:23 10° E
Cosmos 1805 3.2 17:37:57 10° S 17:41:50 76° E 17:45:43 10° NNE
Cosmos 2227 4.3 17:37:00 10° NNW 17:42:35 59° ENE 17:48:08 10° SE
Cosmos 1242 Rocket 2.7 17:39:33 10° SSW 17:43:06 77° WNW 17:46:39 10° N
Okean-O 4.2 17:42:57 10° E 17:45:46 17° ENE 17:48:35 10° NNE
ISS -2.0 17:44:02 10° W 17:47:03 30° SW 17:50:03 10° SSE
CZ-4 R/B 2.0 17:44:25 10° SE 17:48:16 37° ENE 17:52:08 10° N
Cosmos 1697 Rocket 3.7 17:42:50 10° SW 17:48:16 49° NW 17:53:45 10° NNE
BREEZE M DEB (TANK) 4.1 17:44:38 10° SSW 17:50:31 22° SSE 17:53:03 12° ESE
Cosmos 1908 Rocket 4.0 17:49:33 10° SSE 17:53:32 37° E 17:57:32 10° NNE
SL-14 R/B 3.4 17:49:37 10° NNW 17:53:37 81° W 17:57:36 10° S
IRIDIUM 103 4.4 17:48:56 10° SSE 17:53:59 53° E 17:59:04 10° NNE
Meteor 2-21 4.4 17:48:10 10° S 17:54:05 63° E 18:00:04 10° NNE
OBJECT-B 2.2 17:54:14 13° ENE 17:54:14 13° ENE 17:55:26 10° NE
MOS 1-B 4.3 17:48:31 10° SSE 17:54:19 81° ENE 18:00:10 10° NNW
Cosmos 1733 3.5 17:51:37 10° SSW 17:55:20 68° W 17:59:06 10° N
Cosmos 2360 Rocket 3.6 17:52:29 10° SE 17:55:45 16° E 17:59:01 10° ENE
Cosmos 1809 Rocket 4.4 17:52:39 10° S 17:58:43 82° E 18:04:50 10° NNE
Cosmos 1766 3.2 17:57:49 10° S 18:01:41 61° E 18:05:35 10° NNE
Cosmos 1782 Rocket 4.5 17:58:15 10° SE 18:01:49 26° E 18:05:27 10° NNE
Cosmos 1674 Rocket 3.7 17:58:25 10° NNW 18:02:51 82° W 18:07:17 10° S
Meteor 2-10 4.2 17:57:38 10° S 18:03:16 90° W 18:08:45 10° NNE
NOSS 7 (E) 4.5 18:01:21 10° NW 18:04:32 67° NE 18:07:50 14° SE
Cosmos 1025 Rocket 4.0 18:01:45 10° NNE 18:05:26 26° ENE 18:07:56 16° ESE
YAOGAN 1 2.5 18:02:10 10° SSE 18:06:29 78° ENE 18:10:49 10° N
ATLAS 2AS CENTAUR R/B 4.4 18:01:09 10° WNW 18:07:11 25° N 18:12:57 10° NE
Cosmos 2026 Rocket 4.5 18:02:32 10° SSE 18:07:53 34° E 18:13:16 10° NNE
Cosmos 968 Rocket 3.7 18:03:22 10° S 18:08:22 46° ESE 18:13:21 10° NNE
Okean O Rocket 1.5 18:05:59 10° SSE 18:10:19 71° ENE 18:14:43 10° N
IRIDIUM 106 4.2 18:07:02 10° S 18:12:14 75° E 18:17:28 10° N
Lacrosse 4 Rocket 2.5 18:09:58 10° SSE 18:13:09 22° ESE 18:13:56 21° E
Meteor 2-5 Rocket 3.7 18:09:44 10° N 18:15:12 57° ENE 18:20:38 10° SSE
Nadezhda 4 Rocket 4.0 18:09:19 10° S 18:15:37 75° E 18:21:56 10° NNE
Meteor 1-15 Rocket 4.2 18:11:54 10° S 18:17:21 61° E 18:22:50 10° NNE
CSL-04 Rocket 4.2 18:13:27 14° SE 18:17:39 39° ENE 18:22:40 10° N
Cosmos 2285 Rocket 4.1 18:15:22 10° NNW 18:21:44 84° WSW 18:28:08 10° SSE
USA 186 2.6 18:22:42 30° E 18:23:25 33° ENE 18:26:30 10° N
Cosmos 1726 2.8 18:20:18 10° SSW 18:23:52 54° WNW 18:27:29 10° N
Cosmos 2322 Rocket 2.6 18:19:00 10° S 18:24:13 39° ESE 18:29:29 10° NE
Cosmos 1470 2.8 18:24:47 10° S 18:28:30 50° E 18:32:14 10° NNE
CZ-4B R/B 3.7 18:23:33 10° S 18:28:53 63° WSW 18:34:22 10° NNW
Cosmos 1980 Rocket 3.3 18:24:58 10° SW 18:30:23 46° NW 18:35:48 10° NNE
Cosmos 1975 Rocket 3.3 18:26:19 10° N 18:30:37 48° ENE 18:33:08 22° SE
ARGOS Delta rocket 4.3 18:25:39 10° N 18:30:54 69° WNW 18:35:51 10° SSW
CRYOSAT 2 4.5 18:34:19 14° SSE 18:38:24 52° E 18:43:11 10° N
Cosmos 2292 Rocket 3.5 18:33:37 10° S 18:38:42 83° E 18:42:35 10° N
USA 215 3.6 18:36:54 10° NE 18:43:21 64° NNW 18:49:47 10° WSW
IRS-1C Rocket 4.2 18:43:42 26° SE 18:46:31 55° ENE 18:51:39 10° N
Cosmos 1844 Rocket 2.6 18:44:25 10° NNW 18:50:07 71° ENE 18:52:59 30° SE
Cosmos 2278 4.5 18:48:12 10° SW 18:53:44 53° NW 18:59:19 10° NNE
SL-16 R/B 2.1 18:48:43 10° SSW 18:54:24 86° ESE 19:00:06 10° NNE
Landsat 5 3.5 18:50:58 10° NNE 18:55:28 64° ESE 18:59:51 10° S
Cosmos 1092 Rocket 3.9 18:50:49 10° S 18:57:07 87° E 19:03:25 10° N
Resurs 01 Rocket 2.7 19:01:19 30° NE 19:01:19 30° NE 19:04:32 10° N
Cosmos 836 Rocket 4.4 18:56:09 10° NNW 19:01:29 77° ENE 19:03:34 38° SE
SJ-6B 2.6 19:02:07 55° S 19:02:54 87° WSW 19:06:44 10° NNW
Cosmos 2278 Rocket 3.7 19:00:53 10° N 19:05:02 20° NE 19:05:41 20° NE
H-2A R/B 3.4 19:07:12 31° NNE 19:07:12 31° NNE 19:09:39 10° N
Cosmos 1437 Rocket 3.9 19:02:45 10° SW 19:06:19 41° WNW 19:09:53 10° N
Meteor 1-24 Rocket 4.0 19:05:15 10° NNW 19:10:29 61° W 19:15:47 10° S
Resurs 1-3 3.4 19:11:26 65° SE 19:12:01 79° ENE 19:16:25 10° N
MetOp-A 4.2 19:17:19 38° NNE 19:17:19 38° NNE 19:20:05 10° N
SL-4 R/B 4.0 19:12:41 10° W 19:16:22 25° SW 19:17:52 21° SSW
Cosmos 921 Rocket 4.4 19:12:39 10° N 19:15:35 28° NNE 19:15:35 28° NNE
Cosmos 2084 Rocket 4.1 19:15:45 10° NW 19:19:24 41° SW 19:19:51 39° SW
Okean-O 2.8 19:20:29 45° S 19:21:44 69° WSW 19:26:10 10° NNW
CZ-4 R/B 3.7 19:19:51 10° SSW 19:23:17 24° W 19:26:44 10° NW
Cosmos 1486 Rocket 3.9 19:18:26 10° SSW 19:23:45 79° ESE 19:29:07 10° NNE
OBJECT-B 3.2 19:24:55 17° WNW 19:24:55 17° WNW 19:25:57 10° NW
Cosmos 1844 3.7 19:19:02 10° NNW 19:24:37 78° WSW 19:26:12 48° S
IGS 5A 4.0 19:24:38 42° SSW 19:25:40 55° W 19:29:45 10° NNW
DNEPR-1 R/B 3.8 19:23:18 10° SW 19:28:03 88° SE 19:30:36 33° NE
S3M 3.9 19:23:31 10° N 19:29:41 59° ENE 19:30:10 58° E
Cosmos 1300 Rocket 3.7 19:30:15 56° SW 19:31:01 70° WNW 19:35:23 10° N
Cosmos 773 Rocket 4.0 19:25:48 10° NNW 19:31:00 65° ENE 19:31:00 65° ENE
Meteor 1-21 Rocket 4.3 19:26:20 10° N 19:31:34 57° ENE 19:31:34 57° ENE
Cosmos 2360 Rocket 2.1 19:33:17 10° SSW 19:38:55 90° S 19:44:37 10° NNE
Cosmos 158 Rocket 4.5 19:41:10 10° NNW 19:44:48 46° N 19:44:48 46° N
Cosmos 1417 Rocket 4.4 19:43:59 10° N 19:50:08 85° W 19:51:04 66° S
Lacrosse 4 Rocket 2.7 19:47:30 10° SW 19:50:17 35° W 19:50:17 35° W
ATLAS 2AS CENTAUR R/B 3.8 19:53:53 10° NW 20:00:22 33° NNE 20:01:35 31° NE
MOS 1 4.3 20:01:33 78° W 20:01:33 78° W 20:07:09 10° NNW
SPOT 1/Viking Rocket 4.0 20:07:53 58° NW 20:07:53 58° NW 20:12:14 10° NNW
Cosmos 2322 Rocket 3.3 20:02:50 10° WSW 20:08:15 42° NW 20:13:41 10° NNE
NOSS 3-4 (A) 3.7 20:05:05 10° NW 20:11:57 79° NE 20:12:04 79° ENE
NOSS 3-4 (C) 3.7 20:05:11 10° NW 20:12:03 78° NE 20:12:10 78° ENE
Ariane Rocket 4.0 20:16:26 41° NNW 20:16:26 41° NNW 20:19:45 10° NNW
USA 215 4.1 20:24:15 38° NNE 20:25:50 44° N 20:31:57 10° WNW
Aureole 1 Rocket 4.3 20:18:50 10° SW 20:26:02 63° WNW 20:31:42 10° NNE
USA 281 3.7 20:27:40 48° NNE 20:27:40 48° NNE 20:32:53 10° NNW
Resurs 01 Rocket 3.8 20:38:52 23° NW 20:38:52 23° NW 20:41:03 10° NNW
Cosmos 2315 Rocket 4.5 20:32:51 10° NNW 20:37:56 57° NNW 20:37:56 57° NNW
SL-16 R/B 4.4 20:34:50 10° W 20:39:15 23° NW 20:43:41 10° N
Terra 4.2 20:42:43 18° N 20:42:43 18° N 20:43:55 10° N
Cosmos 1943 Rocket 4.0 20:36:28 10° NNW 20:38:59 22° N 20:38:59 22° N
Cosmos 2278 Rocket 3.5 20:44:19 10° NNW 20:47:32 35° NNW 20:47:32 35° NNW
Cosmos 2369 Rocket 4.4 20:56:32 10° N 20:58:48 17° NNE 20:58:48 17° NNE
Cosmos 2333 Rocket 4.4 21:18:31 19° N 21:18:31 19° N 21:20:26 10° NNE
Cosmos 2360 Rocket 4.4 21:19:26 10° W 21:23:43 22° NW 21:28:01 10° N
ATLAS 2AS CENTAUR R/B 4.0 21:45:08 10° NW 21:49:00 35° NW 21:49:00 35° NW
